This is the latest recevied weather packets stored in our database for station/object N2OCK. If no packets are shown the sender has not sent any weather packets the latest 10 day(s).
| Time | Temp. | Humidity | Pressure | Rain* | Wind** | Luminosity | Snow |
|---|---|---|---|---|---|---|---|
| 1777862381 | 6.11° C | 62% | 1012.6 hPa | 0 mm | - | 0 W/m² | - |
| 1777862077 | 6.11° C | 67% | 1012.5 hPa | 0 mm | - | 0 W/m² | - |
| 1777861773 | 6.11° C | 65% | 1012.5 hPa | 0 mm | - | 0 W/m² | - |
| 1777861469 | 6.11° C | 67% | 1012.6 hPa | 0 mm | - | 0 W/m² | - |
| 1777861166 | 6.11° C | 66% | 1012.6 hPa | 0 mm | - | 0 W/m² | - |
| 1777860864 | 6.67° C | 65% | 1012.4 hPa | 0 mm | - | 0 W/m² | - |
| 1777860561 | 6.67° C | 64% | 1012.4 hPa | 0 mm | - | 0 W/m² | - |
| 1777860257 | 6.67° C | 63% | 1012.5 hPa | 0 mm | - | 0 W/m² | - |
| 1777859954 | 6.67° C | 63% | 1012.5 hPa | 0 mm | - | 0 W/m² | - |
| 1777859650 | 7.22° C | 60% | 1012.4 hPa | 0 mm | - | 0 W/m² | - |
| 1777859346 | 7.78° C | 58% | 1012.1 hPa | 0 mm | - | 0 W/m² | - |
| 1777859041 | 7.78° C | 57% | 1012.2 hPa | 0 mm | - | 0 W/m² | - |
| 1777858739 | 7.78° C | 57% | 1012.3 hPa | 0 mm | - | 0 W/m² | - |
| 1777858437 | 7.78° C | 57% | 1012.2 hPa | 0 mm | - | 0 W/m² | - |
| 1777858128 | 7.78° C | 57% | 1012.1 hPa | 0 mm | - | 0 W/m² | - |
| 1777857826 | 8.33° C | 58% | 1012.1 hPa | 0 mm | - | 0 W/m² | - |
| 1777857523 | 8.33° C | 56% | 1011.9 hPa | 0 mm | - | 0 W/m² | - |
| 1777857219 | 8.33° C | 55% | 1011.9 hPa | 0 mm | - | 0 W/m² | - |
| 1777856915 | 8.33° C | 53% | 1012 hPa | 0 mm | - | 0 W/m² | - |
| 1777856611 | 8.89° C | 49% | 1012 hPa | 0 mm | - | 0 W/m² | - |
| 1777856308 | 8.89° C | 49% | 1011.7 hPa | 0 mm | - | 0 W/m² | - |
| 1777856005 | 9.44° C | 48% | 1011.7 hPa | 0 mm | - | 0 W/m² | - |
| 1777855702 | 9.44° C | 46% | 1011.8 hPa | 0 mm | - | 0 W/m² | - |
| 1777855400 | 10° C | 45% | 1011.7 hPa | 0 mm | - | 0 W/m² | - |
| 1777855096 | 10° C | 45% | 1011.6 hPa | 0 mm | - | 0 W/m² | - |
* Rain latest hour (hover to see other rain measurements)
** Current wind speed in m/s (hover to see current wind gust speed)